Location: Proctor
(47.8934°N, 114.3048°W)
Time: 21:39:32
(UTC+00:00)

CAS-6 - Pass Details

Date: 29 June 2022
Orbit: 613 x 634 km, 97.9° (Epoch: 11 August)

Event Time Altitude Azimuth Distance (km) Brightness Sun altitude
Exits shadow 06:26:38 21° 209° (SSW) 1,412 ? -17.0°
Maximum altitude 06:28:58 37° 263° (W) 985 ? -17.1°
Drops below altitude 10° 06:33:02 10° 331° (NNW) 2,007 ? -17.3°
Sets 06:35:22 0° 340° (NNW) 2,915 ? -17.4°
